"Pseudo-MPEC" for P20ZYrD

Created 2020 May 26 12:07:23 UT using Find_Orb

Click here for an explanation of pseudo-MPECs

 
 Astrometry: 
     P20ZYrD  C2020 05 11WIsZ=GAstrometryQ-Z9s;7L[81GE#B=r9^``e=0^wM_(Dlc]@$NF52
     P20ZYrD  C2020 05 11F:fX;f5]]-7vJu]d`TtyR^ZF+w]K1qpR)1?H!L_RPZi;tCisOkXdF52
     P20ZYrD  C2020 05 117caN4=:_gredacted;lclickixd.?Z_qes:n8ogg;E+,bG[vdu6,F52
     P20ZYrD KC2020 05 12A%^+3_JGDv2rjlf(-JW-UcoxFAM\Mn;1SNpXOo.bgx.-[here$n+W34
     P20ZYrD KC2020 05 12[!`yK=Qq^%-1MHv'Pm_%Gg]EPjZT8ej:CeCt6[SCl'forEhbu5!QW34
     P20ZYrD KC2020 05 12HB4GrX(qGJeMmPJB@+uexplanationcQV.tr]/M];u%)wQY23\x.W34

Station data:
(F52) Pan-STARRS 2, Haleakala  (N20.707384 W156.255910)  US/Hawaii. 1.8-m
   Ritchey-Chrétien + CCD.
(W34) Squirrel Valley Observatory, Columbus  (N35.225393 W82.154700)
   US/North Carolina.  Observer R. L. Flynn. 0.35-m f/1.9 Schmidt-Cassegrain
   + CCD.

Orbital elements:  P20ZYrD
   Perihelion 2019 Dec 24.366472 +/- 1.65 TT =  8:47:43 (JD 2458841.866472)
Epoch 2020 May 12.0 TT = JDT 2458981.5   Earth MOID: 0.0139   AutoNEOCP
M 152.31964387 +/- 0.9              (J2000 ecliptic)
n   1.09085293 +/- 0.006            Peri.   19.77734 +/- 0.56
a   0.93459886 +/- 0.00343          Node    53.64144 +/- 0.031
e   0.1074862 +/- 0.00516           Incl.    2.95843 +/- 0.055
P   0.90/330.01d           H 27.9   G  0.15   U  9.3  
q 0.83414235 +/- 0.00789    Q 1.03505536 +/- 0.00103
From 6 observations 2020 May 11-12 (20.2 hr); mean residual 0".56
Residuals in arcseconds: 
200511 F52  .04+  .71-    200511 F52  .18-  1.2+    200512 W34  .66-  .37-    
200511 F52  .14+  .44-    200512 W34  .03+  .35-    200512 W34  .63+  .67+    

Ephemerides (geocentric):
Date (UTC) HH   RA              Dec         delta   r     elong  mag " sig PA
---- -- -- --  -------------   -----------  ------ ------ -----  --- ---- ---
2020 05 26 12  12 08 33.835   -17 14 54.69  .03661 1.0332 122.3 22.9  189  46
2020 05 26 13  12 08 29.633   -17 16 32.89  .03666 1.0332 122.2 22.9  189  46
2020 05 26 14  12 08 25.454   -17 18 10.83  .03672 1.0332 122.2 22.9  190  46
2020 05 26 15  12 08 21.296   -17 19 48.51  .03677 1.0332 122.1 22.9  190  46
2020 05 26 16  12 08 17.159   -17 21 25.93  .03683 1.0332 122.1 22.9  191  46
2020 05 26 17  12 08 13.044   -17 23 03.09  .03689 1.0333 122.0 22.9  191  46
2020 05 26 18  12 08 08.950   -17 24 40.00  .03694 1.0333 122.0 22.9  192  46
2020 05 26 19  12 08 04.877   -17 26 16.65  .03700 1.0333 121.9 22.9  192  46
2020 05 26 20  12 08 00.825   -17 27 53.06  .03705 1.0333 121.9 22.9  193  46
2020 05 26 21  12 07 56.794   -17 29 29.20  .03711 1.0333 121.9 22.9  193  45
2020 05 26 22  12 07 52.784   -17 31 05.10  .03716 1.0333 121.8 22.9  194  45
2020 05 26 23  12 07 48.795   -17 32 40.75  .03722 1.0333 121.8 22.9  194  45
2020 05 27 00  12 07 44.827   -17 34 16.15  .03727 1.0333 121.7 22.9  195  45
2020 05 27 01  12 07 40.879   -17 35 51.31  .03733 1.0334 121.7 22.9  195  45
2020 05 27 02  12 07 36.952   -17 37 26.22  .03739 1.0334 121.6 22.9  196  45
2020 05 27 03  12 07 33.045   -17 39 00.88  .03744 1.0334 121.6 22.9  196  45
2020 05 27 04  12 07 29.159   -17 40 35.30  .03750 1.0334 121.5 22.9  197  45
2020 05 27 05  12 07 25.294   -17 42 09.48  .03755 1.0334 121.5 22.9  197  45
2020 05 27 06  12 07 21.448   -17 43 43.42  .03761 1.0334 121.4 23.0  198  45
2020 05 27 07  12 07 17.623   -17 45 17.11  .03766 1.0334 121.4 23.0  198  45
2020 05 27 08  12 07 13.818   -17 46 50.57  .03772 1.0334 121.3 23.0  199  45
2020 05 27 09  12 07 10.033   -17 48 23.79  .03777 1.0335 121.3 23.0  199  45
2020 05 27 10  12 07 06.268   -17 49 56.78  .03783 1.0335 121.2 23.0  200  45
2020 05 27 11  12 07 02.522   -17 51 29.52  .03789 1.0335 121.2 23.0  200  45
2020 05 27 12  12 06 58.797   -17 53 02.04  .03794 1.0335 121.2 23.0  201  45
2020 05 27 13  12 06 55.091   -17 54 34.32  .03800 1.0335 121.1 23.0  201  45
2020 05 27 14  12 06 51.405   -17 56 06.37  .03805 1.0335 121.1 23.0  202  45
2020 05 27 15  12 06 47.738   -17 57 38.18  .03811 1.0335 121.0 23.0  202  45
2020 05 27 16  12 06 44.091   -17 59 09.77  .03816 1.0335 121.0 23.0  203  45
2020 05 27 17  12 06 40.464   -18 00 41.13  .03822 1.0335 120.9 23.0  203  45
2020 05 27 18  12 06 36.855   -18 02 12.25  .03828 1.0336 120.9 23.0  203  45
2020 05 27 19  12 06 33.266   -18 03 43.16  .03833 1.0336 120.8 23.0  204  45
2020 05 27 20  12 06 29.697   -18 05 13.83  .03839 1.0336 120.8 23.0  204  45
2020 05 27 21  12 06 26.146   -18 06 44.29  .03844 1.0336 120.7 23.0  205  45
2020 05 27 22  12 06 22.614   -18 08 14.51  .03850 1.0336 120.7 23.0  205  45
2020 05 27 23  12 06 19.101   -18 09 44.52  .03855 1.0336 120.7 23.0  206  45
2020 05 28 00  12 06 15.608   -18 11 14.30  .03861 1.0336 120.6 23.0  206  45
2020 05 28 01  12 06 12.132   -18 12 43.86  .03866 1.0336 120.6 23.0  207  45
2020 05 28 02  12 06 08.676   -18 14 13.21  .03872 1.0337 120.5 23.0  207  45
2020 05 28 03  12 06 05.238   -18 15 42.33  .03878 1.0337 120.5 23.0  208  45
2020 05 28 04  12 06 01.819   -18 17 11.24  .03883 1.0337 120.4 23.0  208  45
2020 05 28 05  12 05 58.419   -18 18 39.93  .03889 1.0337 120.4 23.1  209  45
2020 05 28 06  12 05 55.037   -18 20 08.40  .03894 1.0337 120.3 23.1  209  45
2020 05 28 07  12 05 51.673   -18 21 36.66  .03900 1.0337 120.3 23.1  210  45
2020 05 28 08  12 05 48.328   -18 23 04.71  .03905 1.0337 120.3 23.1  210  45
2020 05 28 09  12 05 45.000   -18 24 32.54  .03911 1.0337 120.2 23.1  211  45
2020 05 28 10  12 05 41.691   -18 26 00.16  .03917 1.0337 120.2 23.1  211  45
2020 05 28 11  12 05 38.400   -18 27 27.57  .03922 1.0337 120.1 23.1  212  45